Location: Berua Church
(35.0423°N, 88.5987°W)
Time: 08:06:39
(UTC+00:00)

Nadezhda 4 Rocket - Pass Details

Date: 08 December 2019
Orbit: 949 x 993 km, 82.9° (Epoch: 29 January)

Event Time Altitude Azimuth Distance (km) Brightness Sun altitude
Rises 23:38:03 0° 190° (S) 3,689 7.5 -11.2°
Reaches altitude 10° 23:40:34 10° 192° (SSW) 2,746 6.8 -11.7°
Maximum altitude 23:46:52 73° 277° (W) 1,036 4.3 -12.9°
Drops below altitude 10° 23:53:12 10° 2° (N) 2,757 6.2 -14.2°
Sets 23:55:44 0° 4° (N) 3,706 6.8 -14.7°
